TimeEST,TemperatureF,Dew PointF,Humidity,Sea Level PressureIn,VisibilityMPH,Wind Direction,Wind SpeedMPH,Gust SpeedMPH,PrecipitationIn,Events,Conditions,WindDirDegrees,DateUTC
12:15 AM,53.6,46.4,77,30.30,7.0,Calm,Calm,-,N/A,,Overcast,0,2013-01-25 05:15:00
12:35 AM,51.8,44.6,76,30.30,0.2,SSW,3.5,-,N/A,,Overcast,210,2013-01-25 05:35:00
12:55 AM,51.8,46.4,82,30.30,0.2,SSW,5.8,-,N/A,,Overcast,210,2013-01-25 05:55:00
1:15 AM,51.8,44.6,76,30.30,0.2,SSW,3.5,-,N/A,,Overcast,210,2013-01-25 06:15:00
1:35 AM,51.8,44.6,76,30.30,0.2,South,4.6,-,N/A,,Overcast,190,2013-01-25 06:35:00
1:55 AM,51.8,44.6,76,30.30,0.5,Calm,Calm,-,N/A,,Overcast,0,2013-01-25 06:55:00
2:15 AM,48.2,42.8,82,30.29,0.2,Calm,Calm,-,N/A,,Overcast,0,2013-01-25 07:15:00
2:35 AM,48.2,42.8,82,30.29,0.2,Calm,Calm,-,N/A,,Overcast,0,2013-01-25 07:35:00
2:55 AM,48.2,42.8,82,30.29,0.2,Calm,Calm,-,N/A,,Overcast,0,2013-01-25 07:55:00
3:15 AM,48.2,42.8,82,30.29,0.2,Calm,Calm,-,N/A,,Mostly Cloudy,0,2013-01-25 08:15:00
3:35 AM,46.4,39.2,76,30.28,0.5,Calm,Calm,-,N/A,,Overcast,0,2013-01-25 08:35:00
3:55 AM,46.4,41.0,81,30.29,0.2,Calm,Calm,-,N/A,,Overcast,0,2013-01-25 08:55:00
4:15 AM,46.4,41.0,81,30.29,0.2,Calm,Calm,-,N/A,,Overcast,0,2013-01-25 09:15:00
4:35 AM,46.4,41.0,81,30.29,0.2,Calm,Calm,-,N/A,,Overcast,0,2013-01-25 09:35:00
4:55 AM,46.4,39.2,76,30.29,0.2,Calm,Calm,-,N/A,,Overcast,0,2013-01-25 09:55:00
5:15 AM,44.6,39.2,81,30.29,0.5,Calm,Calm,-,N/A,,Unknown,0,2013-01-25 10:15:00
5:35 AM,44.6,37.4,76,30.29,0.5,Calm,Calm,-,N/A,,Unknown,0,2013-01-25 10:35:00
5:55 AM,44.6,37.4,76,30.30,2.5,Calm,Calm,-,N/A,,Clear,0,2013-01-25 10:55:00
6:15 AM,44.6,37.4,76,30.30,1.8,Calm,Calm,-,N/A,,Clear,0,2013-01-25 11:15:00
6:35 AM,44.6,39.2,81,30.31,5.0,Calm,Calm,-,N/A,,Clear,0,2013-01-25 11:35:00
6:50 AM,48.2,46.4,93,30.31,3.0,Calm,Calm,-,N/A,,Partly Cloudy,0,2013-01-25 11:50:00
7:27 AM,46.4,46.4,100,30.31,0.5,Calm,Calm,-,N/A,Fog,Fog,0,2013-01-25 12:27:00
7:50 AM,46.4,44.6,93,30.32,1.0,Calm,Calm,-,N/A,,Scattered Clouds,0,2013-01-25 12:50:00
8:32 AM,53.6,51.8,94,30.33,3.0,Calm,Calm,-,N/A,,Scattered Clouds,0,2013-01-25 13:32:00
8:50 AM,55.4,51.8,88,30.32,4.0,ENE,3.5,-,N/A,,Scattered Clouds,60,2013-01-25 13:50:00
9:50 AM,59.0,53.6,82,30.33,7.0,NE,4.6,-,N/A,,Partly Cloudy,50,2013-01-25 14:50:00
10:50 AM,66.2,53.6,64,30.33,7.0,North,3.5,-,N/A,,Clear,350,2013-01-25 15:50:00
11:50 AM,69.8,50.0,49,30.31,10.0,West,4.6,-,N/A,,Partly Cloudy,280,2013-01-25 16:50:00
12:50 PM,73.4,44.6,36,30.27,10.0,ESE,4.6,-,N/A,,Partly Cloudy,110,2013-01-25 17:50:00
1:50 PM,73.4,46.4,38,30.23,10.0,West,6.9,-,N/A,,Partly Cloudy,270,2013-01-25 18:50:00
2:50 PM,75.2,42.8,31,30.20,10.0,SSW,9.2,19.6,N/A,,Partly Cloudy,200,2013-01-25 19:50:00
3:50 PM,73.4,42.8,33,30.19,10.0,SW,9.2,20.7,N/A,,Partly Cloudy,230,2013-01-25 20:50:00
4:50 PM,73.4,42.8,33,30.19,10.0,WSW,5.8,-,N/A,,Partly Cloudy,250,2013-01-25 21:50:00
5:50 PM,68.0,42.8,40,30.20,10.0,WSW,9.2,-,N/A,,Clear,240,2013-01-25 22:50:00
6:50 PM,62.6,39.2,42,30.23,10.0,West,4.6,-,N/A,,Clear,260,2013-01-25 23:50:00
7:55 PM,57.2,37.4,48,30.22,10.0,SW,4.6,-,N/A,,Clear,220,2013-01-26 00:55:00
8:15 PM,57.2,39.2,51,30.21,10.0,SW,4.6,-,N/A,,Clear,220,2013-01-26 01:15:00
8:35 PM,57.2,39.2,51,30.22,10.0,West,3.5,-,N/A,,Clear,260,2013-01-26 01:35:00
8:55 PM,55.4,39.2,54,30.22,10.0,SW,3.5,-,N/A,,Clear,220,2013-01-26 01:55:00
9:15 PM,53.6,39.2,58,30.22,10.0,Calm,Calm,-,N/A,,Clear,0,2013-01-26 02:15:00
9:35 PM,53.6,41.0,62,30.22,10.0,Calm,Calm,-,N/A,,Clear,0,2013-01-26 02:35:00
9:55 PM,53.6,41.0,62,30.22,10.0,WSW,3.5,-,N/A,,Clear,240,2013-01-26 02:55:00
10:15 PM,51.8,39.2,62,30.23,10.0,Calm,Calm,-,N/A,,Clear,0,2013-01-26 03:15:00
10:35 PM,48.2,39.2,71,30.24,10.0,Calm,Calm,-,N/A,,Clear,0,2013-01-26 03:35:00
10:55 PM,48.2,39.2,71,30.24,10.0,Calm,Calm,-,N/A,,Clear,0,2013-01-26 03:55:00
11:15 PM,46.4,37.4,71,30.25,10.0,Calm,Calm,-,N/A,,Clear,0,2013-01-26 04:15:00
11:35 PM,46.4,37.4,71,30.24,5.0,Calm,Calm,-,N/A,,Clear,0,2013-01-26 04:35:00
11:55 PM,46.4,37.4,71,30.24,5.0,SSW,3.5,-,N/A,,Clear,200,2013-01-26 04:55:00